Voltar ao catálogo

QIANFAN-3

AtivoComunicaçõesPO
NORAD 60381·PAYLOAD·🇨🇳 China

Lançado Aug 6, 2024 de Taiyuan Satellite Launch Center

Loading…

Próximas Passagens (próximas 24 horas)

TLE

AtualizadoSource: Space-Track

Época: Sep 14, 2026, 21:51 UTC

1 60381U 24140C   26257.91057620  .00000019  00000-0  10680-4 0  9990
2 60381  88.9643 270.5224 0015819 118.3306 241.9443 13.51022964104607

Acompanhe QIANFAN-3 em tempo real com AllMySat

Download on the App Store